User: anonymous   Login
Location: Unspecified
(0.0000°N, 0.0000°E)
Time: 01:34:15
(UTC+00:00)
Language:

IGS OPTICAL 5 - Orbit

View from above orbital plane
View from above orbital plane
View from above satellite
View from above satellite

Ground track
Ground track

The orbit data is extracted from the following two-line orbital elements,

1 40538U 15015A   24110.86656637 0.00000000  00000-0  00000-0 0    00
2 40538  97.3459 182.5802 0003718 329.6761  30.3582 15.27652578    07
Epoch (UTC): 19 April 2024 20:47:51
Eccentricity: 0.0003718
inclination: 97.3459°
perigee height: 480 km
apogee height: 485 km
right ascension of ascending node: 182.5802°
argument of perigee: 329.6761°
revolutions per day: 15.27652578
mean anomaly at epoch: 30.3582°
orbit number at epoch: 0

The dashed part of the orbit path shows where the satellite is in the earth's shadow,  

DLR